Regional Weather Roundup
Issued by NWS

Home | Current Version | Previous Version | Graphics & Text | Print | Product List | Glossary On
Versions: 1 2 3 4 5 6 7 8 9 10 11 12 13 14 15 16 17 18 19 20 21 22 23 24 25 26 27 28 29 30 31 32 33 34 35 36 37 38 39 40 41 42 43 44 45 46 47 48 49 50
000
ASUS45 KABQ 171210
RWRNM
WEATHER ROUNDUP FOR NEW MEXICO
NATIONAL WEATHER SERVICE ALBUQUERQUE NM
600 AM MDT WED SEP 17 2014

NOTE: "FAIR" MEANS FEW OR NO CLOUDS BELOW 12,000 FEET AGL WITH NO
       SIGNIFICANT WEATHER OR OBSTRUCTIONS TO VISION.

      THIS PRODUCT IS RELEASED AS TWO VERSIONS.  ONE VERSION NEAR
      THE TOP OF THE HOUR CONTAINING PRELIMINARY DATA FROM ALBUQUERQUE
      AND OTHER STATIONS.  A FINAL VERSION WITH ADDITIONAL DATA IS
      ISSUED ABOUT 10 MINUTES AFTER THE HOUR.

NMZ501-503-504-510>518-171300-
NORTHWEST PLATEAU/NORTHCENTRAL MOUNTAINS

CITY           SKY/WX    TMP DP  RH WIND       PRES   REMARKS
FARMINGTON     CLEAR     63  49  60 E7        30.14S
6HR MIN TEMP:  63; 6HR MAX TEMP:  69;

LOS ALAMOS     CLOUDY    54  54  97 N3        30.26S
SANTA FE       CLOUDY    56  50  80 CALM      30.21S
6HR MIN TEMP:  56; 6HR MAX TEMP:  59;

ANGEL FIRE     FAIR      41  38  90 CALM      30.34S

$$
NMZ402-403-502-505>509-171300-
WESTCENTRAL MOUNTAINS/SOUTHWEST MOUNTAINS

CITY           SKY/WX    TMP DP  RH WIND       PRES   REMARKS
GALLUP         CLOUDY    58  52  80 CALM      30.21R
6HR MIN TEMP:  57; 6HR MAX TEMP:  62;

GRANTS         DRIZZLE   57  54  88 S6        30.24R
SILVER CITY    CLOUDY    63  59  88 NE8       30.14F

$$
NMZ407-409-411-412-171300-
SOUTHERN DESERTS

CITY           SKY/WX    TMP DP  RH WIND       PRES   REMARKS
LORDSBURG      DRIZZLE   64  63  94 E6        30.06R
DEMING         HVY RAIN  64  63  96 NE17      30.07F FOG
6HR MIN TEMP:  64; 6HR MAX TEMP:  66; 6HR PCP:  0.48;

LAS CRUCES     CLOUDY    65  63  93 N6        30.10R
HOLLOMAN AFB   CLOUDY    64  64 100 N8        30.09S
ALAMOGORDO     LGT RAIN  64  64 100 NW10      30.12R
T OR C         RAIN      62  62 100 NE3       30.13R FOG
6HR MIN TEMP:  62; 6HR MAX TEMP:  64; 6HR PCP:  0.59;


$$
NMZ519>523-171300-
CENTRAL VALLEYS/CENTRAL HIGHLANDS

CITY           SKY/WX    TMP DP  RH WIND       PRES   REMARKS
ALBUQUERQUE    CLOUDY    62  55  77 CALM      30.17S
6HR MIN TEMP:  61; 6HR MAX TEMP:  63;

DOUBLE EAGLE   DRIZZLE   59  55  88 CALM      30.19S
MORIARTY ARPT  CLOUDY    55  52  91 CALM      30.22S
6HR MIN TEMP:  54; 6HR MAX TEMP:  56;

CLINES CORNERS CLOUDY    55  52  89 NW6       30.23S
6HR MIN TEMP:  54; 6HR MAX TEMP:  56; 6HR PCP:  0.01;

BELEN          DRIZZLE   59  58  97 CALM      30.16S
6HR MIN TEMP:  59; 6HR MAX TEMP:  61; 6HR PCP:  0.02;

SOCORRO        LGT RAIN  62  61  96 CALM      30.14S
6HR MIN TEMP:  62; 6HR MAX TEMP:  64; 6HR PCP:  0.12;


$$
NMZ524>526-539-540-171300-
SOUTHCENTRAL MOUNTAINS

CITY           SKY/WX    TMP DP  RH WIND       PRES   REMARKS
RUIDOSO        CLOUDY    57  57 100 CALM      30.26S FOG

$$
NMZ527>531-171300-
NORTHEAST HIGHLANDS/NORTHEAST PLAINS

CITY           SKY/WX    TMP DP  RH WIND       PRES   REMARKS
LAS VEGAS      CLOUDY    52  45  77 NW6       30.21F
6HR MIN TEMP:  50; 6HR MAX TEMP:  56;

RATON          MOCLDY    51  49  92 CALM      30.18R
6HR MIN TEMP:  50; 6HR MAX TEMP:  57;

CLAYTON        MOCLDY    60  56  86 SW9       30.08S
6HR MIN TEMP:  59; 6HR MAX TEMP:  63;


$$
NMZ532>537-171300-
EASTCENTRAL PLAINS

CITY           SKY/WX    TMP DP  RH WIND       PRES   REMARKS
TUCUMCARI      CLOUDY    64  60  87 SW9       30.07F
6HR MIN TEMP:  61; 6HR MAX TEMP:  66;

CANNON AFB     MOCLDY    63  59  88 W5        30.12F
6HR MIN TEMP:  63; 6HR MAX TEMP:  65;

CLOVIS AIRPORT   N/A     63  59  88 SW7       30.14S

$$
NMZ028-029-538-171300-
SOUTHEAST PLAINS

CITY           SKY/WX    TMP DP  RH WIND       PRES   REMARKS
ROSWELL        CLOUDY    66  65  96 NE3       30.08S FOG
6HR MIN TEMP:  66; 6HR MAX TEMP:  67; 6HR PCP:  0.01;

CARLSBAD       MOCLDY    67  50  55 N5        30.06S HAZE
6HR MIN TEMP:  67; 6HR MAX TEMP:  70;

HOBBS          CLEAR     64  64 100 NE3       30.10


$$


USA.gov is the U.S. government's official web portal to all federal, state and local government web resources and services.